User: anonymous
Location: Unspecified
(0.0000°N, 0.0000°E)
Time: 11:09:04
(UTC+02:00)
Language:

YAOGAN 1 - Orbit

View from above orbital plane
View from above orbital plane
View from above satellite
View from above satellite

Ground track
Ground track

The orbit data is extracted from the following two-line orbital elements,

1 29092U 06015A   14244.78541931  .00000398  00000-0  57004-4 0  1405
2 29092 097.9842 240.0554 0001449 106.6436 020.9944 14.81876516451338
Epoch (UTC): 01 September 2014 18:51:00
Eccentricity: 0.0001449
inclination: 97.9842°
perigee height: 622 km
apogee height: 624 km
right ascension of ascending node: 240.0554°
argument of perigee: 106.6436°
revolutions per day: 14.81876516
mean anomaly at epoch: 20.9944°
orbit number at epoch: 45133

The dashed part of the orbit path shows where the satellite is in the earth's shadow,  

DLR